"Pseudo-MPEC" for C2F1VV2

Created 2020 Mar 29 22:07:05 UT using Find_Orb

Click here for an explanation of pseudo-MPECs

 
 Astrometry: 
     C2F1VV2  C2020 03 25.33163 12 56 35.30 +12 19 13.8    ~3P8q 21.1 GVNEOCPG96
     C2F1VV2  C2020 03 25.33689 12 56 34.71 +12 19 13.5    ~3P8q 22.3 GVNEOCPG96
     C2F1VV2  C2020 03 25.34215 12 56 34.09 +12 19 12.4    ~3P8q 22.0 GVNEOCPG96
     C2F1VV2  C2020 03 25.34741 12 56 33.55 +12 19 11.4    ~3P8q 21.7 GVNEOCPG96
     C2F1VV2  C2020 03 25.45448 12 56 22.83 +12 18 47.4    ~3PBM 21.2 GVNEOCPI52
     C2F1VV2  C2020 03 25.45824 12 56 22.45 +12 18 47.1    ~3PBM 21.2 GVNEOCPI52
     C2F1VV2  C2020 03 25.46201 12 56 22.08 +12 18 45.4    ~3PBM 21.9 GVNEOCPI52

Station data:
(G96) Mt. Lemmon Survey  (N32.442754 W110.788720)  US/Arizona.  Observers T.
   A. Pruyne, B. M. Africano, E. J. Christensen, G. A. Farneth, D. C. Fuls,
   A. R. Gibbs, A. D. Grauer, H. Gröller, J. A. Johnson, R. A. Kowalski, S.
   M. Larson, G. J. Leonard, D. Rankin, R. L. Seaman, F. C. Shelly. 1.5-m
   reflector + 10K CCD.
(I52) Steward Observatory, Mt. Lemmon Station  (N32.442547 W110.788920)
   US/Arizona.  Observers T. A. Pruyne, B. M. Africano, E. J. Christensen, G.
   A. Farneth, D. C. Fuls, A. R. Gibbs, A. D. Grauer, H. Gröller, J. A.
   Johnson, R. A. Kowalski, S. M. Larson, G. J. Leonard, D. Rankin, R. L.
   Seaman, F. C. Shelly. 1.0-m reflector + CCD.

Orbital elements:  C2F1VV2
   Perihelion 2019 Jul 27.414897 +/- 208 TT =  9:57:27 (JD 2458691.914897)
Epoch 2020 Mar 25.0 TT = JDT 2458933.5   Earth MOID: 0.7641   AutoNEOCP
M  96.06638163 +/- 90               (J2000 ecliptic)
n   0.39765027 +/- 0.151            Peri.   50.82501 +/- 100
a   1.83147865 +/- 0.463            Node    31.98781 +/- 33
e   0.0549806 +/- 0.122             Incl.   17.72086 +/- 9
P   2.48/905.30d           H 20.3   G  0.15   U 11.5  SR
q 1.73078282 +/- 0.275    Q 1.93217448 +/- 0.618
From 7 observations 2020 Mar. 25 (3.1 hr); mean residual 0".57
Residuals in arcseconds: 
200325 G96  1.3+  .66-    200325 G96  1.0-  .33+    200325 I52  .12+  .41-    
200325 G96  .42+  .17+    200325 I52  .05+  .10-    
200325 G96  .88-  .20+    200325 I52  .01+  .45+    

Ephemerides (geocentric):
Date (UTC) HH   RA              Dec         delta   r     elong  mag " sig PA
---- -- -- --  -------------   -----------  ------ ------ -----  --- ---- ---
2020 03 29 22  12 49 02.708   +11 59 49.99  .87059 1.8509 163.9 21.9  880 177
2020 03 29 23  12 48 58.565   +11 59 37.65  .87061 1.8509 163.9 21.9  889 177
2020 03 30 00  12 48 54.423   +11 59 25.29  .87063 1.8509 163.9 21.9  898 177
2020 03 30 01  12 48 50.280   +11 59 12.89  .87065 1.8510 163.9 21.9  907 177
2020 03 30 02  12 48 46.137   +11 59 00.47  .87067 1.8510 163.9 21.9  916 177
2020 03 30 03  12 48 41.994   +11 58 48.01  .87068 1.8510 163.9 21.9  925 177
2020 03 30 04  12 48 37.851   +11 58 35.52  .87070 1.8511 163.9 21.9  934 177
2020 03 30 05  12 48 33.708   +11 58 23.00  .87072 1.8511 163.9 21.9  943 177
2020 03 30 06  12 48 29.565   +11 58 10.44  .87074 1.8511 163.9 21.9  952 177
2020 03 30 07  12 48 25.422   +11 57 57.86  .87077 1.8511 163.9 21.9  961 177
2020 03 30 08  12 48 21.278   +11 57 45.24  .87079 1.8512 163.9 21.9  971 177
2020 03 30 09  12 48 17.135   +11 57 32.60  .87081 1.8512 163.9 21.9  980 177
2020 03 30 10  12 48 12.992   +11 57 19.92  .87083 1.8512 163.9 21.9  989 177
2020 03 30 11  12 48 08.848   +11 57 07.21  .87085 1.8513 163.9 21.9  998 177
2020 03 30 12  12 48 04.705   +11 56 54.47  .87088 1.8513 163.9 21.9 1008 177
2020 03 30 13  12 48 00.562   +11 56 41.69  .87090 1.8513 163.8 21.9 1017 177
2020 03 30 14  12 47 56.419   +11 56 28.89  .87092 1.8513 163.8 21.9 1026 177
2020 03 30 15  12 47 52.276   +11 56 16.05  .87095 1.8514 163.8 21.9 1035 177
2020 03 30 16  12 47 48.132   +11 56 03.18  .87097 1.8514 163.8 21.9 1045 177
2020 03 30 17  12 47 43.989   +11 55 50.28  .87100 1.8514 163.8 21.9 1054 177
2020 03 30 18  12 47 39.846   +11 55 37.35  .87102 1.8514 163.8 21.9 1064 177
2020 03 30 19  12 47 35.703   +11 55 24.39  .87105 1.8515 163.8 21.9 1073 177
2020 03 30 20  12 47 31.561   +11 55 11.40  .87108 1.8515 163.8 21.9 1082 177
2020 03 30 21  12 47 27.418   +11 54 58.37  .87110 1.8515 163.8 21.9 1092 177
2020 03 30 22  12 47 23.275   +11 54 45.31  .87113 1.8516 163.8 21.9 1101 177
2020 03 30 23  12 47 19.133   +11 54 32.22  .87116 1.8516 163.8 21.9 1111 177
2020 03 31 00  12 47 14.991   +11 54 19.10  .87119 1.8516 163.8 21.9 1120 177
2020 03 31 01  12 47 10.848   +11 54 05.95  .87121 1.8516 163.8 21.9 1130 177
2020 03 31 02  12 47 06.706   +11 53 52.77  .87124 1.8517 163.8 21.9 1139 178
2020 03 31 03  12 47 02.565   +11 53 39.55  .87127 1.8517 163.8 21.9 1149 178
2020 03 31 04  12 46 58.423   +11 53 26.30  .87130 1.8517 163.8 21.9 1159 178
2020 03 31 05  12 46 54.281   +11 53 13.02  .87133 1.8518 163.8 21.9 1168 178
2020 03 31 06  12 46 50.140   +11 52 59.71  .87136 1.8518 163.8 21.9 1178 178
2020 03 31 07  12 46 45.999   +11 52 46.37  .87139 1.8518 163.8 21.9 1188 178
2020 03 31 08  12 46 41.858   +11 52 33.00  .87143 1.8518 163.8 21.9 1197 178
2020 03 31 09  12 46 37.718   +11 52 19.59  .87146 1.8519 163.8 21.9 1207 178
2020 03 31 10  12 46 33.578   +11 52 06.16  .87149 1.8519 163.7 21.9 1217 178
2020 03 31 11  12 46 29.438   +11 51 52.69  .87152 1.8519 163.7 21.9 1227 178
2020 03 31 12  12 46 25.298   +11 51 39.19  .87156 1.8520 163.7 21.9 1236 178
2020 03 31 13  12 46 21.158   +11 51 25.66  .87159 1.8520 163.7 21.9 1246 178
2020 03 31 14  12 46 17.019   +11 51 12.09  .87162 1.8520 163.7 21.9 1256 178
2020 03 31 15  12 46 12.880   +11 50 58.50  .87166 1.8520 163.7 21.9 1266 178
2020 03 31 16  12 46 08.742   +11 50 44.87  .87169 1.8521 163.7 21.9 1276 178
2020 03 31 17  12 46 04.604   +11 50 31.21  .87173 1.8521 163.7 21.9 1286 178
2020 03 31 18  12 46 00.466   +11 50 17.52  .87177 1.8521 163.7 21.9 1296 178
2020 03 31 19  12 45 56.328   +11 50 03.80  .87180 1.8522 163.7 21.9 1306 178
2020 03 31 20  12 45 52.191   +11 49 50.05  .87184 1.8522 163.7 21.9 1316 178
2020 03 31 21  12 45 48.054   +11 49 36.26  .87187 1.8522 163.7 21.9 1326 178